TimePST,TemperatureF,Dew PointF,Humidity,Sea Level PressureIn,VisibilityMPH,Wind Direction,Wind SpeedMPH,Gust SpeedMPH,PrecipitationIn,Events,Conditions,WindDirDegrees,DateUTC
12:56 AM,46.9,41.0,80,30.16,10.0,SSE,6.9,-,N/A,,Scattered Clouds,150,2012-01-01 08:56:00
1:56 AM,46.0,39.9,79,30.16,10.0,SSE,6.9,-,N/A,,Scattered Clouds,150,2012-01-01 09:56:00
2:56 AM,48.9,44.1,83,30.17,10.0,Calm,Calm,-,N/A,,Clear,0,2012-01-01 10:56:00
3:56 AM,45.0,41.0,86,30.17,10.0,South,4.6,-,N/A,,Clear,190,2012-01-01 11:56:00
4:56 AM,46.9,41.0,80,30.17,10.0,SE,4.6,-,N/A,,Clear,130,2012-01-01 12:56:00
5:56 AM,44.1,39.0,82,30.16,10.0,SE,5.8,-,N/A,,Partly Cloudy,140,2012-01-01 13:56:00
6:56 AM,46.0,39.9,79,30.17,10.0,SE,10.4,-,N/A,,Partly Cloudy,140,2012-01-01 14:56:00
7:56 AM,46.4,41.0,81,30.19,10.0,ESE,4.6,-,N/A,,Partly Cloudy,120,2012-01-01 15:56:00
8:56 AM,48.9,41.0,74,30.20,10.0,SE,6.9,-,N/A,,Partly Cloudy,130,2012-01-01 16:56:00
9:56 AM,52.0,42.1,69,30.21,10.0,SSE,5.8,-,N/A,,Partly Cloudy,150,2012-01-01 17:56:00
10:56 AM,55.0,42.1,62,30.20,10.0,ESE,3.5,-,N/A,,Partly Cloudy,110,2012-01-01 18:56:00
11:56 AM,55.0,43.0,64,30.17,10.0,Calm,Calm,-,N/A,,Partly Cloudy,0,2012-01-01 19:56:00
12:56 PM,55.9,46.0,69,30.14,10.0,North,6.9,-,N/A,,Partly Cloudy,360,2012-01-01 20:56:00
1:56 PM,55.9,46.0,69,30.13,10.0,North,6.9,-,N/A,,Partly Cloudy,10,2012-01-01 21:56:00
2:56 PM,57.0,46.0,67,30.12,10.0,North,6.9,-,N/A,,Partly Cloudy,10,2012-01-01 22:56:00
3:56 PM,55.9,46.9,72,30.12,10.0,ENE,3.5,-,N/A,,Scattered Clouds,60,2012-01-01 23:56:00
4:56 PM,57.9,44.1,60,30.12,10.0,Calm,Calm,-,N/A,,Scattered Clouds,0,2012-01-02 00:56:00
5:56 PM,55.0,44.1,67,30.13,10.0,Calm,Calm,-,N/A,,Scattered Clouds,0,2012-01-02 01:56:00
6:56 PM,52.0,46.9,83,30.14,10.0,Calm,Calm,-,N/A,,Partly Cloudy,0,2012-01-02 02:56:00
7:56 PM,52.0,44.1,74,30.16,10.0,South,3.5,-,N/A,,Partly Cloudy,190,2012-01-02 03:56:00
8:56 PM,51.1,43.0,74,30.15,10.0,SSE,3.5,-,N/A,,Scattered Clouds,150,2012-01-02 04:56:00
9:56 PM,50.0,43.0,77,30.16,10.0,SSE,5.8,-,N/A,,Partly Cloudy,160,2012-01-02 05:56:00
10:56 PM,50.0,41.0,71,30.17,9.0,West,3.5,-,N/A,,Partly Cloudy,280,2012-01-02 06:56:00
11:56 PM,48.2,42.8,82,30.17,9.0,Calm,Calm,-,N/A,,Partly Cloudy,0,2012-01-02 07:56:00